Beaumont, TX

8:53 AM CST on January 22, 2018 (GMT -0600)
Southeast Texas Regional

Weather History for KBPT - December, 2013

Change the Weather History Date:

Monday, December 23, 2013

  Actual Average Record
Temperature  
Mean Temperature 44 °F 53 °F  
Max Temperature 53 °F 62 °F 82 °F (2015)
Min Temperature 35 °F 44 °F 12 °F (1989)
Degree Days  
Heating Degree Days 21 13  
Month to date heating degree days 277 252  
Since 1 July heating degree days 519 447  
Cooling Degree Days 0 1  
Month to date cooling degree days 24 23  
Year to date cooling degree days 3019 2878  
Moisture  
Dew Point 32 °F    
Average Humidity 63    
Maximum Humidity 82    
Minimum Humidity 44    
Precipitation  
Precipitation 0.00 in 0.18 in 2.62 in (1945)
Month to date precipitation 1.29 3.85  
Year to date precipitation 56.12 59.03  
Snow  
Snow 0.00 in 0.00 in T in (1983)
Month to date snowfall 0.0 0.0  
Since 1 July snowfall 0.0 0.0  
Snow Depth 0.00 in    
Sea Level Pressure  
Sea Level Pressure 30.41 in    
Wind  
Wind Speed 11 mph (North)    
Max Wind Speed 18 mph    
Max Gust Speed 24 mph    
Visibility 10 miles    
Events      
T = Trace of Precipitation, MM = Missing Value Source: NWS Daily Summary

Daily Weather History Graph

Daily Weather History Graph

Search for Another Location

Airport or City:

Trip Planner

Search our weather history database for the weather conditions in past years. The results will help you decide how hot, cold, wet, or windy it might be!

Date:

Astronomy

Dec. 23, 2013 Rise Set
Actual Time 7:08 AM CST 5:22 PM CST
Civil Twilight 6:42 AM CST 5:48 PM CST
Nautical Twilight 6:12 AM CST 6:18 PM CST
Astronomical Twilight 5:43 AM CST 6:47 PM CST
Moon 11:07 PM CST (12/23) 10:57 AM CST (12/23)
Length of Visible Light 11h 05m
Length of Day
10h 13m
Waning Gibbous, 68% of the Moon is Illuminated
Dec 23
Waning Gibbous
Dec 25
Last Quarter
Jan 1
New
Jan 7
First Quarter
Jan 15
Full

Hourly Weather History & Observations

Time (CST) Temp. Windchill Dew Point Humidity Pressure Visibility Wind Dir Wind Speed Gust Speed Precip Events Conditions
12:53 AM 37.9 °F 29.6 °F 30.9 °F 76% 30.29 in 10.0 mi NNW 13.8 mph - N/A   Clear
1:53 AM 37.0 °F 29.3 °F 30.9 °F 79% 30.30 in 10.0 mi North 11.5 mph - N/A   Clear
2:53 AM 36.0 °F 27.5 °F 30.9 °F 82% 30.30 in 10.0 mi NNW 12.7 mph - N/A   Scattered Clouds
3:53 AM 36.0 °F 28.5 °F 30.9 °F 82% 30.32 in 10.0 mi NNW 10.4 mph - N/A   Partly Cloudy
4:53 AM 36.0 °F 27.1 °F 30.9 °F 82% 30.32 in 10.0 mi North 13.8 mph - N/A   Scattered Clouds
5:09 AM 35.6 °F 25.5 °F 30.2 °F 81% 30.32 in 10.0 mi North 17.3 mph - N/A   Mostly Cloudy
5:53 AM 36.0 °F 27.1 °F 30.9 °F 82% 30.32 in 10.0 mi North 13.8 mph 21.9 mph N/A   Overcast
6:53 AM 37.0 °F 28.9 °F 30.9 °F 79% 30.35 in 10.0 mi North 12.7 mph - N/A   Overcast
7:53 AM 37.9 °F 29.6 °F 32.0 °F 79% 30.39 in 10.0 mi North 13.8 mph - N/A   Overcast
8:53 AM 39.0 °F 31.0 °F 32.0 °F 76% 30.42 in 10.0 mi North 13.8 mph - N/A   Overcast
9:53 AM 39.9 °F 31.8 °F 32.0 °F 73% 30.44 in 10.0 mi North 15.0 mph - N/A   Mostly Cloudy
10:00 AM 42.8 °F 35.1 °F 32.0 °F 66% 30.45 in 10.0 mi NNE 16.1 mph - N/A   Partly Cloudy
10:53 AM 44.1 °F 37.7 °F 33.1 °F 65% 30.45 in 10.0 mi NNE 12.7 mph - N/A   Clear
11:53 AM 46.9 °F - 34.0 °F 61% 30.43 in 10.0 mi North 10.4 mph - N/A   Clear
12:53 PM 50.0 °F - 34.0 °F 54% 30.42 in 10.0 mi NNW 13.8 mph 18.4 mph N/A   Clear
1:53 PM 51.1 °F - 34.0 °F 52% 30.41 in 10.0 mi North 11.5 mph - N/A   Clear
2:53 PM 53.1 °F - 33.1 °F 47% 30.41 in 10.0 mi North 12.7 mph - N/A   Clear
3:53 PM 52.0 °F - 30.0 °F 43% 30.41 in 10.0 mi North 11.5 mph - N/A   Clear
4:53 PM 50.0 °F - 30.9 °F 48% 30.43 in 10.0 mi NNW 11.5 mph - N/A   Clear
5:53 PM 46.0 °F 40.6 °F 32.0 °F 58% 30.45 in 10.0 mi North 11.5 mph - N/A   Clear
6:53 PM 42.1 °F 37.7 °F 30.9 °F 65% 30.47 in 10.0 mi North 6.9 mph - N/A   Clear
7:53 PM 41.0 °F 36.4 °F 32.0 °F 70% 30.49 in 10.0 mi North 6.9 mph - N/A   Clear
8:53 PM 41.0 °F 37.1 °F 32.0 °F 70% 30.51 in 10.0 mi NNE 5.8 mph - N/A   Clear
9:53 PM 39.9 °F 35.8 °F 30.9 °F 70% 30.51 in 10.0 mi North 5.8 mph - N/A   Clear
10:53 PM 39.0 °F 33.4 °F 30.9 °F 73% 30.52 in 10.0 mi NNE 8.1 mph - N/A   Clear
11:53 PM 37.0 °F 31.6 °F 30.0 °F 76% 30.52 in 10.0 mi North 6.9 mph - N/A   Clear